Flag Weather past 2 weeks in Turaif, Saudi Arabia

Now
50 °F

Passing clouds.


Feels Like: 45 °F
Forecast: 44 / 58 °F
Wind: 14 mph from West

Location: Turaif

Current Time: Nov 26, 2014 at 10:14:57 PM

Latest Report: Nov 26, 2014 at 9:00 PM


Visibility: N/A

Pressure: 29.98 "Hg

Humidity: 76%

Dew point: 43 °F

Location of TuraifLocation

Historic Weather in Turaif — Graph

°F

Turaif temperature yesterday

Maximum temperature yesterday: 57 °F (at 3:00 PM)
Minimum temperature yesterday: 45 °F (at 11:00 PM)
Average temperature yesterday: 51 °F

Past Weeks' High & Low Weather Summary

 TemperatureHumidityPressure
High77 °F (Nov 12, 1:00 PM)100% (Nov 17, 4:00 AM)30.30 "Hg (Nov 17, 4:00 AM)
Low43 °F (Nov 19, 7:00 AM)15% (Nov 15, 2:00 PM)29.86 "Hg (Nov 24, 3:00 PM)
Average57 °F63%30.01 "Hg
* Reported Nov 11 9:00 PM — Nov 26 9:00 PM, Turaif, Weather by CustomWeather, © 2014

Note: Actual official high and low records may vary slightly from our data, if they occured in-between our weather recording intervals... More about our weather records

Advertising

Turaif weather history for previous 24 hours

 ConditionsComfort  
Time TempWeatherWind HumidityBarometerVisibility
9:00 PM
Nov 26
50 °FPassing clouds.14 mph76%29.98 "HgN/A
8:00 PM52 °FPassing clouds.16 mph72%29.95 "HgN/A
7:00 PM52 °FPassing clouds.14 mph72%29.95 "HgN/A
6:00 PM54 °FPartly sunny.14 mph72%29.95 "HgN/A
5:00 PM55 °FPartly sunny.12 mph67%29.92 "Hg5 mi
4:00 PM55 °FPartly sunny.12 mph82%29.92 "HgN/A
3:00 PM54 °FRain. Partly sunny.16 mph82%29.89 "Hg5 mi
2:00 PM55 °FBroken clouds.16 mph72%29.92 "HgN/A
1:00 PM54 °FBroken clouds.14 mph77%29.95 "HgN/A
12:00 PM54 °FPartly sunny.12 mph77%29.95 "HgN/A
11:00 AM52 °FPartly sunny.14 mph82%29.98 "HgN/A
10:00 AM52 °FPartly sunny.14 mph88%29.98 "HgN/A
9:00 AM46 °FPartly sunny.9 mph93%29.98 "HgN/A
8:00 AM45 °FPartly cloudy.9 mph100%29.95 "HgN/A
7:00 AM45 °FPassing clouds.9 mph100%29.95 "HgN/A
6:00 AM43 °FClear.9 mph100%29.95 "Hg10 mi
5:00 AM43 °FClear.9 mph100%29.95 "Hg10 mi
4:00 AM43 °FClear.9 mph100%29.95 "Hg10 mi
2:00 AM46 °FClear.3 mph93%29.95 "Hg10 mi
1:00 AM45 °FClear.7 mph93%29.95 "Hg10 mi
12:00 AM45 °FClear.5 mph93%29.98 "Hg10 mi
11:00 PM
Nov 25
45 °FClear.9 mph87%30.01 "Hg10 mi
10:00 PM46 °FClear.5 mph93%29.98 "Hg10 mi
Weather by CustomWeather, © 2014

See weather overviewHow to use our weather pages